Language: 


Des rapports , des résumés tant et plus, au choix de chacun....


Données Historiques de Météogheer
Journalier Rapport pour Février 21, 2018 Unitée:  Métrique    Impériale   Les deux
Suivant Jour »
Journalier Hebdomadaire Mensuel Annuel Sur mesure
  Max: Min: Moyenne:
Température: 6.1 °C -0.5 °C 2 °C
Point de rosée: 1.0 °C -3.0 °C -0.9 °C
Humidité: 96% 53% 82%
Vent: 18.3km/h 0.0km/h 9.6km/h
Rafales: 24.8km/h - -
Vent- - ENE
Pression: 1024.9 hPa 1021.9 hPa -
Pluie: 0.3 mm    
Historical Graphs
 
 
Données tabulaires pour Février 21, 2018
Heure Température Point de rosée Pression Vent Vent Rafales Humidité Pluie Taux (Horaire) Conditions
00:00 2.2 °C 0.0 °C 1021.9 hPa NE 4.7 km/h 7.9 km/h 86% 0.0 mm
00:05 2.1 °C 0.0 °C 1021.9 hPa North 6.4 km/h 7.9 km/h 86% 0.0 mm
00:10 2.0 °C 1.0 °C 1021.9 hPa NNE 10.5 km/h 10.5 km/h 87% 0.0 mm
00:15 1.9 °C 0.0 °C 1021.9 hPa NE 9.7 km/h 10.5 km/h 88% 0.0 mm
00:20 1.9 °C 0.0 °C 1021.9 hPa NE 9.0 km/h 10.1 km/h 88% 0.0 mm
00:25 1.7 °C 0.0 °C 1021.9 hPa NE 6.9 km/h 10.5 km/h 88% 0.0 mm
00:30 1.6 °C 0.0 °C 1021.9 hPa NE 7.9 km/h 10.5 km/h 89% 0.0 mm
00:35 1.6 °C 0.0 °C 1021.9 hPa NNE 10.5 km/h 10.5 km/h 89% 0.0 mm
00:40 1.5 °C 0.0 °C 1021.9 hPa NE 10.1 km/h 10.5 km/h 90% 0.0 mm
00:46 1.5 °C 0.0 °C 1021.9 hPa North 6.9 km/h 10.5 km/h 90% 0.0 mm
00:51 1.4 °C 0.0 °C 1021.9 hPa NNE 3.5 km/h 10.5 km/h 91% 0.0 mm
00:56 1.4 °C 0.0 °C 1021.9 hPa North 8.7 km/h 10.5 km/h 91% 0.0 mm
01:01 1.3 °C 0.0 °C 1021.9 hPa NNE 5.5 km/h 9.0 km/h 91% 0.0 mm
01:06 1.3 °C 0.0 °C 1021.9 hPa NNE 6.9 km/h 10.1 km/h 91% 0.0 mm
01:11 1.3 °C 0.0 °C 1021.9 hPa NE 6.4 km/h 10.1 km/h 92% 0.0 mm
01:16 1.2 °C 0.0 °C 1021.9 hPa Calm   11.9 km/h 92% 0.0 mm
01:21 1.2 °C 0.0 °C 1021.9 hPa NE 8.7 km/h 11.9 km/h 92% 0.0 mm
01:26 1.2 °C 1.0 °C 1021.9 hPa North 7.9 km/h 9.7 km/h 93% 0.0 mm
01:31 1.2 °C 1.0 °C 1022.9 hPa NNE 10.1 km/h 10.1 km/h 93% 0.0 mm
01:36 1.2 °C 1.0 °C 1022.9 hPa NE 11.9 km/h 11.9 km/h 93% 0.0 mm
01:41 1.1 °C 0.0 °C 1022.9 hPa NNE 7.9 km/h 11.9 km/h 93% 0.0 mm
01:46 1.0 °C 0.0 °C 1021.9 hPa NE 8.7 km/h 11.9 km/h 93% 0.0 mm
01:51 1.0 °C 0.0 °C 1021.9 hPa NNE 6.1 km/h 9.0 km/h 93% 0.0 mm
01:56 0.9 °C 0.0 °C 1021.9 hPa NE 9.7 km/h 9.7 km/h 93% 0.0 mm
02:01 0.9 °C 0.0 °C 1021.9 hPa NE 6.9 km/h 9.7 km/h 93% 0.0 mm
02:06 0.8 °C 0.0 °C 1021.9 hPa NE 9.7 km/h 10.5 km/h 93% 0.0 mm
02:11 0.8 °C 0.0 °C 1021.9 hPa NNE 6.9 km/h 10.5 km/h 93% 0.0 mm
02:16 0.8 °C 0.0 °C 1022.9 hPa North 10.5 km/h 10.5 km/h 93% 0.0 mm
02:21 0.7 °C 0.0 °C 1022.9 hPa Calm   10.5 km/h 93% 0.0 mm
02:26 0.7 °C 0.0 °C 1022.9 hPa Calm   10.5 km/h 93% 0.0 mm
02:31 0.6 °C 0.0 °C 1022.9 hPa NE 9.0 km/h 9.0 km/h 93% 0.0 mm
02:36 0.6 °C 0.0 °C 1022.9 hPa North 5.5 km/h 9.0 km/h 94% 0.0 mm
02:41 0.6 °C 0.0 °C 1022.9 hPa NNE 10.1 km/h 10.1 km/h 94% 0.0 mm
02:46 0.6 °C 0.0 °C 1022.9 hPa North 6.1 km/h 10.1 km/h 94% 0.0 mm
02:51 0.6 °C 0.0 °C 1022.9 hPa NE 5.8 km/h 10.1 km/h 94% 0.0 mm
02:56 0.6 °C 0.0 °C 1022.9 hPa NNE 5.5 km/h 11.9 km/h 94% 0.0 mm
03:02 0.6 °C 0.0 °C 1022.9 hPa NNE 7.9 km/h 11.9 km/h 95% 0.0 mm
03:07 0.6 °C 0.0 °C 1022.9 hPa NE 5.0 km/h 9.3 km/h 95% 0.0 mm
03:12 0.5 °C 0.0 °C 1022.9 hPa NNE 8.7 km/h 9.3 km/h 95% 0.0 mm
03:17 0.5 °C 0.0 °C 1022.9 hPa NNE 5.8 km/h 10.5 km/h 94% 0.0 mm
03:22 0.4 °C 0.0 °C 1022.9 hPa NE 5.0 km/h 10.5 km/h 94% 0.0 mm
03:27 0.4 °C 0.0 °C 1022.9 hPa NE 6.4 km/h 10.1 km/h 94% 0.0 mm
03:32 0.4 °C 0.0 °C 1022.9 hPa NNE 8.7 km/h 9.0 km/h 94% 0.0 mm
03:37 0.3 °C 0.0 °C 1022.9 hPa NNE 7.6 km/h 10.8 km/h 95% 0.0 mm
03:42 0.3 °C 0.0 °C 1022.9 hPa NE 6.4 km/h 12.6 km/h 95% 0.0 mm
03:47 0.3 °C 0.0 °C 1022.9 hPa NNE 7.9 km/h 12.6 km/h 95% 0.0 mm
03:52 0.3 °C 0.0 °C 1022.9 hPa NNE 3.2 km/h 9.3 km/h 95% 0.0 mm
03:57 0.3 °C 0.0 °C 1022.9 hPa NE 6.4 km/h 8.7 km/h 95% 0.0 mm
04:02 0.2 °C 0.0 °C 1022.9 hPa NE 5.5 km/h 9.0 km/h 95% 0.0 mm
04:07 0.2 °C 0.0 °C 1022.9 hPa NNE 9.0 km/h 10.5 km/h 95% 0.0 mm
04:12 0.2 °C 0.0 °C 1022.9 hPa NE 6.4 km/h 10.5 km/h 95% 0.0 mm
04:17 0.2 °C 0.0 °C 1022.9 hPa NNW 5.8 km/h 9.0 km/h 95% 0.0 mm
04:22 0.2 °C 0.0 °C 1022.9 hPa NNE 6.9 km/h 9.7 km/h 95% 0.0 mm
04:27 0.1 °C 0.0 °C 1022.9 hPa NE 6.4 km/h 9.7 km/h 95% 0.0 mm
04:32 0.1 °C 0.0 °C 1022.9 hPa Calm   6.9 km/h 95% 0.0 mm
04:37 0.0 °C -1.0 °C 1022.9 hPa NE 4.0 km/h 6.9 km/h 95% 0.0 mm
04:42 0.0 °C -1.0 °C 1022.9 hPa North 7.6 km/h 9.3 km/h 95% 0.0 mm
04:47 0.0 °C -1.0 °C 1022.9 hPa NNE 6.9 km/h 9.3 km/h 95% 0.0 mm
04:52 0.1 °C 0.0 °C 1022.9 hPa NNW 9.7 km/h 10.1 km/h 95% 0.0 mm
04:57 0.1 °C 0.0 °C 1022.9 hPa ENE 4.0 km/h 10.8 km/h 95% 0.0 mm
05:02 0.1 °C 0.0 °C 1022.9 hPa NE 3.5 km/h 10.8 km/h 95% 0.0 mm
05:07 0.1 °C 0.0 °C 1022.9 hPa NE 9.3 km/h 10.5 km/h 95% 0.0 mm
05:12 0.1 °C 0.0 °C 1022.9 hPa North 11.6 km/h 11.6 km/h 95% 0.0 mm
05:17 0.1 °C 0.0 °C 1022.9 hPa NNE 9.0 km/h 12.2 km/h 95% 0.0 mm
05:23 0.1 °C 0.0 °C 1022.9 hPa ENE 9.0 km/h 12.6 km/h 96% 0.0 mm
05:28 0.1 °C 0.0 °C 1022.9 hPa NNE 9.7 km/h 12.6 km/h 96% 0.0 mm
05:33 0.1 °C 0.0 °C 1022.9 hPa ENE 5.5 km/h 11.9 km/h 96% 0.0 mm
05:38 0.1 °C 0.0 °C 1022.9 hPa NNE 9.7 km/h 11.9 km/h 96% 0.0 mm
05:43 0.1 °C 0.0 °C 1022.9 hPa North 9.3 km/h 12.2 km/h 96% 0.0 mm
05:48 0.0 °C -1.0 °C 1021.9 hPa NE 11.9 km/h 12.6 km/h 95% 0.0 mm
05:53 0.0 °C -1.0 °C 1021.9 hPa NNE 9.7 km/h 13.0 km/h 95% 0.0 mm
05:58 -0.1 °C -1.0 °C 1021.9 hPa NE 7.9 km/h 13.0 km/h 95% 0.0 mm
06:03 -0.1 °C -1.0 °C 1021.9 hPa NNE 9.0 km/h 11.9 km/h 95% 0.0 mm
06:08 -0.1 °C -1.0 °C 1021.9 hPa NE 6.9 km/h 10.5 km/h 95% 0.0 mm
06:13 -0.2 °C -1.0 °C 1021.9 hPa Calm   8.7 km/h 95% 0.0 mm
06:18 -0.2 °C -1.0 °C 1022.9 hPa NNE 6.9 km/h 6.9 km/h 95% 0.0 mm
06:23 -0.2 °C -1.0 °C 1022.9 hPa NNE 3.2 km/h 6.9 km/h 95% 0.0 mm
06:28 -0.2 °C -1.0 °C 1022.9 hPa Calm   7.9 km/h 95% 0.0 mm
06:33 -0.2 °C -1.0 °C 1022.9 hPa NE 6.4 km/h 9.7 km/h 95% 0.0 mm
06:38 -0.1 °C -1.0 °C 1022.9 hPa NNE 9.3 km/h 10.5 km/h 95% 0.0 mm
06:43 -0.1 °C -1.0 °C 1022.9 hPa NE 12.2 km/h 12.2 km/h 95% 0.0 mm
06:48 -0.1 °C -1.0 °C 1022.9 hPa NE 9.0 km/h 12.2 km/h 95% 0.0 mm
06:53 0.0 °C -1.0 °C 1022.9 hPa NE 10.1 km/h 12.2 km/h 95% 0.0 mm
06:58 -0.1 °C -1.0 °C 1022.9 hPa NE 8.7 km/h 12.2 km/h 95% 0.0 mm
07:03 -0.2 °C -1.0 °C 1022.9 hPa Calm   10.5 km/h 95% 0.0 mm
07:09 -0.3 °C -2.0 °C 1022.9 hPa NE 9.7 km/h 9.7 km/h 94% 0.0 mm
07:14 -0.3 °C -2.0 °C 1022.9 hPa NE 11.6 km/h 11.6 km/h 94% 0.0 mm
07:19 -0.3 °C -2.0 °C 1022.9 hPa NNE 6.9 km/h 11.6 km/h 94% 0.0 mm
07:24 -0.3 °C -2.0 °C 1022.9 hPa NE 6.9 km/h 11.6 km/h 94% 0.0 mm
07:29 -0.4 °C -2.0 °C 1022.9 hPa NNE 9.3 km/h 9.7 km/h 94% 0.0 mm
07:34 -0.4 °C -2.0 °C 1022.9 hPa Calm   9.3 km/h 94% 0.0 mm
07:39 -0.4 °C -2.0 °C 1022.9 hPa NE 8.7 km/h 9.3 km/h 94% 0.0 mm
07:44 -0.5 °C -2.0 °C 1022.9 hPa Calm   9.0 km/h 94% 0.0 mm
07:49 -0.5 °C -2.0 °C 1022.9 hPa NE 8.7 km/h 9.7 km/h 94% 0.0 mm
07:54 -0.4 °C -2.0 °C 1022.9 hPa NNE 9.7 km/h 10.1 km/h 94% 0.0 mm
07:59 -0.4 °C -2.0 °C 1022.9 hPa NE 9.3 km/h 11.1 km/h 94% 0.0 mm
08:04 -0.3 °C -2.0 °C 1022.9 hPa NE 10.5 km/h 11.1 km/h 95% 0.0 mm
08:09 -0.3 °C -2.0 °C 1022.9 hPa ENE 7.6 km/h 12.6 km/h 95% 0.0 mm
08:14 -0.3 °C -2.0 °C 1022.9 hPa NE 5.8 km/h 12.6 km/h 94% 0.0 mm
08:19 -0.4 °C -2.0 °C 1022.9 hPa NE 7.2 km/h 10.5 km/h 94% 0.0 mm
08:24 -0.4 °C -2.0 °C 1022.9 hPa NE 6.1 km/h 10.5 km/h 94% 0.0 mm
08:29 -0.4 °C -2.0 °C 1023.9 hPa NNE 6.1 km/h 10.5 km/h 94% 0.0 mm
08:34 -0.3 °C -2.0 °C 1023.9 hPa NNE 7.9 km/h 12.2 km/h 94% 0.0 mm
08:39 -0.3 °C -2.0 °C 1023.9 hPa NE 6.4 km/h 12.2 km/h 94% 0.0 mm
08:44 -0.2 °C -2.0 °C 1023.9 hPa NNE 12.6 km/h 12.6 km/h 94% 0.0 mm
08:49 -0.1 °C -1.0 °C 1023.9 hPa NNE 9.0 km/h 12.6 km/h 95% 0.0 mm
08:54 0.1 °C 0.0 °C 1023.9 hPa NE 6.9 km/h 12.2 km/h 95% 0.0 mm
08:59 0.1 °C 0.0 °C 1023.9 hPa NNE 9.3 km/h 12.2 km/h 95% 0.0 mm
09:04 0.2 °C 0.0 °C 1023.9 hPa NE 6.1 km/h 12.2 km/h 95% 0.0 mm
09:09 0.3 °C 0.0 °C 1023.9 hPa NE 7.9 km/h 11.6 km/h 95% 0.0 mm
09:14 0.4 °C 0.0 °C 1024.9 hPa NE 10.5 km/h 11.9 km/h 95% 0.0 mm
09:20 0.5 °C 0.0 °C 1024.9 hPa NE 10.1 km/h 11.9 km/h 94% 0.0 mm
09:25 0.6 °C 0.0 °C 1024.9 hPa NNE 9.3 km/h 11.6 km/h 94% 0.0 mm
09:30 0.7 °C 0.0 °C 1024.9 hPa NNW 11.9 km/h 12.6 km/h 94% 0.0 mm
09:35 0.9 °C 0.0 °C 1024.9 hPa NNE 9.3 km/h 13.0 km/h 94% 0.0 mm
09:40 1.0 °C 0.0 °C 1024.9 hPa North 11.9 km/h 13.0 km/h 92% 0.0 mm
09:45 1.1 °C 0.0 °C 1024.9 hPa NE 13.0 km/h 14.0 km/h 92% 0.0 mm
09:50 1.2 °C 0.0 °C 1024.9 hPa NE 14.0 km/h 14.0 km/h 91% 0.0 mm
09:55 1.3 °C 0.0 °C 1024.9 hPa NNE 9.7 km/h 14.0 km/h 90% 0.0 mm
10:00 1.4 °C 0.0 °C 1024.9 hPa NE 13.0 km/h 14.0 km/h 89% 0.0 mm
10:05 1.5 °C 0.0 °C 1024.9 hPa NE 13.0 km/h 14.0 km/h 89% 0.0 mm
10:10 1.6 °C 0.0 °C 1024.9 hPa NE 12.2 km/h 13.0 km/h 89% 0.0 mm
10:15 1.8 °C 0.0 °C 1024.9 hPa NNE 9.7 km/h 13.0 km/h 88% 0.0 mm
10:21 1.9 °C 0.0 °C 1024.9 hPa NE 11.1 km/h 13.7 km/h 88% 0.0 mm
10:26 2.0 °C 0.0 °C 1024.9 hPa NE 9.7 km/h 13.7 km/h 86% 0.0 mm
10:31 2.1 °C 0.0 °C 1023.9 hPa NE 13.0 km/h 14.8 km/h 85% 0.0 mm
10:36 2.2 °C 0.0 °C 1023.9 hPa NE 9.0 km/h 14.8 km/h 85% 0.0 mm
10:41 2.3 °C 0.0 °C 1023.9 hPa NNE 10.5 km/h 14.0 km/h 84% 0.0 mm
10:46 2.5 °C 0.0 °C 1024.9 hPa NE 10.5 km/h 14.0 km/h 83% 0.0 mm
10:51 2.7 °C 0.0 °C 1024.9 hPa NE 9.7 km/h 14.0 km/h 83% 0.0 mm
10:56 2.8 °C 1.0 °C 1024.9 hPa ENE 8.7 km/h 13.7 km/h 82% 0.0 mm
11:01 2.9 °C 0.0 °C 1024.9 hPa ENE 10.1 km/h 13.7 km/h 80% 0.0 mm
11:06 3.0 °C 0.0 °C 1024.9 hPa NE 10.1 km/h 13.7 km/h 78% 0.0 mm
11:11 3.2 °C 0.0 °C 1024.9 hPa ENE 12.2 km/h 17.2 km/h 77% 0.0 mm
11:16 3.3 °C 0.0 °C 1023.9 hPa East 14.0 km/h 17.2 km/h 76% 0.0 mm
11:21 3.5 °C 0.0 °C 1023.9 hPa NE 13.0 km/h 14.3 km/h 76% 0.0 mm
11:26 3.6 °C 0.0 °C 1023.9 hPa NE 11.9 km/h 14.0 km/h 74% 0.0 mm
11:31 3.8 °C 0.0 °C 1023.9 hPa ENE 11.9 km/h 13.7 km/h 74% 0.0 mm
11:36 3.8 °C -1.0 °C 1023.9 hPa ENE 11.6 km/h 18.3 km/h 72% 0.0 mm
11:41 3.9 °C -1.0 °C 1023.9 hPa ENE 10.1 km/h 18.3 km/h 70% 0.0 mm
11:46 4.1 °C -1.0 °C 1024.9 hPa ENE 11.9 km/h 16.9 km/h 70% 0.0 mm
11:51 4.1 °C -1.0 °C 1024.9 hPa NE 10.5 km/h 16.9 km/h 69% 0.0 mm
11:56 4.2 °C -1.0 °C 1024.9 hPa ENE 12.2 km/h 16.9 km/h 69% 0.0 mm
12:02 4.3 °C -1.0 °C 1024.9 hPa NE 15.8 km/h 16.6 km/h 67% 0.0 mm
12:07 4.4 °C -1.0 °C 1024.9 hPa ENE 12.2 km/h 16.6 km/h 67% 0.0 mm
12:12 4.5 °C -1.0 °C 1024.9 hPa ENE 10.1 km/h 16.3 km/h 66% 0.3 mm
12:17 4.6 °C -1.0 °C 1024.9 hPa East 9.3 km/h 16.3 km/h 66% 0.3 mm
12:22 4.7 °C -1.0 °C 1024.9 hPa NE 12.6 km/h 16.3 km/h 65% 0.3 mm
12:27 4.7 °C -1.0 °C 1024.9 hPa ENE 12.2 km/h 16.3 km/h 65% 0.3 mm
12:32 4.8 °C -1.0 °C 1024.9 hPa ENE 10.5 km/h 16.3 km/h 65% 0.3 mm
12:37 4.9 °C -1.0 °C 1024.9 hPa ENE 5.5 km/h 16.3 km/h 66% 0.3 mm
12:42 5.0 °C -1.0 °C 1024.9 hPa NE 16.6 km/h 17.7 km/h 64% 0.3 mm
12:47 4.9 °C -2.0 °C 1024.9 hPa NE 12.6 km/h 17.7 km/h 62% 0.3 mm
12:52 5.0 °C -1.0 °C 1024.9 hPa ENE 13.7 km/h 16.6 km/h 63% 0.3 mm
12:57 5.0 °C -1.0 °C 1024.9 hPa ENE 13.0 km/h 15.4 km/h 63% 0.3 mm
13:02 5.0 °C -2.0 °C 1024.9 hPa NE 13.7 km/h 16.6 km/h 61% 0.3 mm
13:07 5.1 °C -1.0 °C 1024.9 hPa NNE 10.1 km/h 16.6 km/h 63% 0.3 mm
13:12 5.2 °C -1.0 °C 1024.9 hPa ENE 11.9 km/h 13.7 km/h 63% 0.0 mm
13:17 5.4 °C -1.0 °C 1024.9 hPa ENE 13.0 km/h 14.8 km/h 64% 0.0 mm
13:22 5.6 °C 0.0 °C 1024.9 hPa NNE 10.5 km/h 14.8 km/h 65% 0.0 mm
13:27 5.6 °C -1.0 °C 1024.9 hPa NE 13.7 km/h 14.0 km/h 63% 0.0 mm
13:32 5.6 °C -1.0 °C 1024.9 hPa NNE 16.3 km/h 16.3 km/h 61% 0.0 mm
13:37 5.5 °C -1.0 °C 1024.9 hPa NE 16.9 km/h 17.2 km/h 60% 0.0 mm
13:42 5.6 °C -1.0 °C 1024.9 hPa NNE 13.7 km/h 17.2 km/h 61% 0.0 mm
13:47 5.5 °C -1.0 °C 1024.9 hPa ENE 12.2 km/h 16.9 km/h 60% 0.0 mm
13:52 5.6 °C -1.0 °C 1024.9 hPa NE 11.9 km/h 16.9 km/h 60% 0.0 mm
13:57 5.6 °C -1.0 °C 1024.9 hPa NNE 12.6 km/h 16.9 km/h 60% 0.0 mm
14:02 5.8 °C -1.0 °C 1023.9 hPa NE 13.7 km/h 17.2 km/h 60% 0.0 mm
14:07 5.8 °C -1.0 °C 1023.9 hPa ENE 10.5 km/h 17.2 km/h 61% 0.0 mm
14:13 5.9 °C -1.0 °C 1023.9 hPa NE 14.8 km/h 19.8 km/h 60% 0.0 mm
14:18 5.8 °C -1.0 °C 1023.9 hPa NE 15.8 km/h 20.9 km/h 60% 0.0 mm
14:23 5.7 °C -1.0 °C 1023.9 hPa NE 14.0 km/h 20.9 km/h 59% 0.0 mm
14:28 5.8 °C -1.0 °C 1023.9 hPa NE 13.7 km/h 20.6 km/h 59% 0.0 mm
14:33 5.8 °C -1.0 °C 1023.9 hPa NNE 16.6 km/h 20.6 km/h 58% 0.0 mm
14:38 5.8 °C -1.0 °C 1023.9 hPa NE 10.1 km/h 19.8 km/h 59% 0.0 mm
14:43 5.8 °C -2.0 °C 1023.9 hPa NNW 14.0 km/h 20.1 km/h 56% 0.0 mm
14:48 5.8 °C -2.0 °C 1022.9 hPa NNE 16.6 km/h 21.6 km/h 57% 0.0 mm
14:53 5.8 °C -2.0 °C 1022.9 hPa NE 13.7 km/h 24.8 km/h 56% 0.0 mm
14:58 5.8 °C -2.0 °C 1022.9 hPa ENE 12.6 km/h 24.8 km/h 54% 0.0 mm
15:03 5.8 °C -2.0 °C 1022.9 hPa NE 17.2 km/h 23.3 km/h 55% 0.0 mm
15:08 5.9 °C -2.0 °C 1022.9 hPa NNE 18.3 km/h 23.3 km/h 57% 0.0 mm
15:13 6.0 °C -2.0 °C 1022.9 hPa NNE 12.2 km/h 20.9 km/h 57% 0.0 mm
15:18 6.0 °C -2.0 °C 1022.9 hPa NE 13.0 km/h 18.3 km/h 57% 0.0 mm
15:23 6.1 °C -1.0 °C 1022.9 hPa NNE 12.6 km/h 15.8 km/h 58% 0.0 mm
15:28 6.1 °C -1.0 °C 1022.9 hPa ENE 14.0 km/h 17.7 km/h 58% 0.0 mm
15:33 6.1 °C -2.0 °C 1022.9 hPa NE 17.2 km/h 20.9 km/h 56% 0.0 mm
15:38 6.0 °C -3.0 °C 1022.9 hPa NE 15.4 km/h 21.2 km/h 53% 0.0 mm
15:43 6.0 °C -2.0 °C 1022.9 hPa NNE 16.6 km/h 21.2 km/h 54% 0.0 mm
15:48 6.0 °C -3.0 °C 1022.9 hPa NE 16.3 km/h 24.8 km/h 53% 0.0 mm
15:53 5.9 °C -3.0 °C 1022.9 hPa ENE 13.0 km/h 24.8 km/h 53% 0.0 mm
15:58 5.9 °C -2.0 °C 1022.9 hPa NE 16.6 km/h 20.9 km/h 55% 0.0 mm
16:03 5.9 °C -2.0 °C 1022.9 hPa NE 12.6 km/h 19.8 km/h 57% 0.0 mm
16:08 6.0 °C -2.0 °C 1022.9 hPa NE 15.8 km/h 19.8 km/h 56% 0.0 mm
16:13 5.9 °C -1.0 °C 1022.9 hPa NE 14.0 km/h 17.7 km/h 58% 0.0 mm
16:19 5.8 °C -2.0 °C 1022.9 hPa NE 18.0 km/h 20.9 km/h 55% 0.0 mm
16:24 5.7 °C -3.0 °C 1022.9 hPa NE 12.6 km/h 20.9 km/h 54% 0.0 mm
16:29 5.7 °C -3.0 °C 1022.9 hPa NNE 15.8 km/h 20.6 km/h 55% 0.0 mm
16:34 5.6 °C -3.0 °C 1022.9 hPa NE 12.2 km/h 20.1 km/h 55% 0.0 mm
16:39 5.4 °C -3.0 °C 1022.9 hPa NE 12.6 km/h 20.6 km/h 53% 0.0 mm
16:44 5.4 °C -3.0 °C 1022.9 hPa NE 12.6 km/h 20.6 km/h 54% 0.0 mm
16:49 5.3 °C -3.0 °C 1022.9 hPa ENE 15.1 km/h 17.7 km/h 54% 0.0 mm
16:54 5.3 °C -3.0 °C 1022.9 hPa NE 10.1 km/h 18.0 km/h 55% 0.0 mm
16:59 5.2 °C -3.0 °C 1022.9 hPa NNE 12.6 km/h 18.0 km/h 56% 0.0 mm
17:04 5.1 °C -3.0 °C 1022.9 hPa NE 15.4 km/h 19.8 km/h 57% 0.0 mm
17:09 5.0 °C -2.0 °C 1022.9 hPa NNE 9.0 km/h 19.8 km/h 59% 0.0 mm
17:14 4.9 °C -2.0 °C 1022.9 hPa NNE 13.7 km/h 16.9 km/h 61% 0.0 mm
17:19 4.8 °C -2.0 °C 1022.9 hPa NE 14.0 km/h 16.9 km/h 61% 0.0 mm
17:24 4.7 °C -2.0 °C 1022.9 hPa NE 12.6 km/h 16.9 km/h 61% 0.0 mm
17:29 4.6 °C -2.0 °C 1022.9 hPa NE 14.3 km/h 16.6 km/h 61% 0.0 mm
17:34 4.6 °C -2.0 °C 1022.9 hPa NNE 12.2 km/h 16.6 km/h 62% 0.0 mm
17:39 4.4 °C -2.0 °C 1022.9 hPa NE 13.7 km/h 14.0 km/h 63% 0.0 mm
17:44 4.2 °C -2.0 °C 1022.9 hPa NNE 11.9 km/h 14.3 km/h 64% 0.0 mm
17:50 4.0 °C -2.0 °C 1022.9 hPa NNE 8.7 km/h 15.4 km/h 64% 0.0 mm
17:55 3.8 °C -2.0 °C 1022.9 hPa NE 9.7 km/h 15.4 km/h 66% 0.0 mm
18:00 3.7 °C -2.0 °C 1022.9 hPa NE 12.6 km/h 14.0 km/h 66% 0.0 mm
18:05 3.5 °C -2.0 °C 1022.9 hPa NNE 4.7 km/h 13.0 km/h 67% 0.0 mm
18:10 3.3 °C -2.0 °C 1022.9 hPa NNE 9.3 km/h 12.6 km/h 69% 0.0 mm
18:15 3.1 °C -1.0 °C 1022.9 hPa NNE 10.1 km/h 12.2 km/h 71% 0.0 mm
18:20 2.9 °C -1.0 °C 1022.9 hPa NE 9.7 km/h 12.2 km/h 72% 0.0 mm
18:25 2.7 °C -1.0 °C 1022.9 hPa NE 8.7 km/h 12.6 km/h 73% 0.0 mm
18:30 2.6 °C -1.0 °C 1021.9 hPa NNE 5.8 km/h 13.0 km/h 73% 0.0 mm
18:35 2.5 °C -1.0 °C 1021.9 hPa NNW 9.7 km/h 13.0 km/h 74% 0.0 mm
18:40 2.3 °C -1.0 °C 1021.9 hPa NNE 8.7 km/h 10.5 km/h 74% 0.0 mm
18:45 2.2 °C -1.0 °C 1022.9 hPa NNE 9.3 km/h 11.9 km/h 75% 0.0 mm
18:50 2.1 °C -1.0 °C 1022.9 hPa NE 7.9 km/h 13.0 km/h 76% 0.0 mm
18:55 2.0 °C -1.0 °C 1022.9 hPa NE 5.5 km/h 13.0 km/h 76% 0.0 mm
19:00 2.0 °C -1.0 °C 1022.9 hPa NNE 11.6 km/h 12.6 km/h 77% 0.0 mm
19:05 1.9 °C -1.0 °C 1022.9 hPa North 5.8 km/h 13.0 km/h 78% 0.0 mm
19:10 1.8 °C -2.0 °C 1022.9 hPa North 11.9 km/h 13.0 km/h 78% 0.0 mm
19:15 1.7 °C -2.0 °C 1022.9 hPa NE 6.1 km/h 13.7 km/h 78% 0.0 mm
19:20 1.7 °C -1.0 °C 1022.9 hPa NE 8.7 km/h 15.4 km/h 79% 0.0 mm
19:25 1.7 °C -1.0 °C 1022.9 hPa NNE 12.6 km/h 15.4 km/h 79% 0.0 mm
19:30 1.6 °C -1.0 °C 1021.9 hPa NNE 7.9 km/h 13.7 km/h 79% 0.0 mm
19:35 1.6 °C -1.0 °C 1021.9 hPa ENE 4.7 km/h 12.6 km/h 79% 0.0 mm
19:40 1.4 °C -2.0 °C 1021.9 hPa North 1.4 km/h 12.6 km/h 79% 0.0 mm
19:45 1.2 °C -2.0 °C 1022.9 hPa NNE 5.5 km/h 9.7 km/h 79% 0.0 mm
19:50 1.2 °C -1.0 °C 1022.9 hPa NNE 6.9 km/h 13.0 km/h 80% 0.0 mm
19:55 1.3 °C -1.0 °C 1022.9 hPa NNE 8.7 km/h 13.0 km/h 82% 0.0 mm
20:00 1.3 °C -1.0 °C 1022.9 hPa NE 11.9 km/h 12.6 km/h 83% 0.0 mm
20:05 1.2 °C -1.0 °C 1022.9 hPa NE 9.3 km/h 12.2 km/h 84% 0.0 mm
20:10 1.2 °C -1.0 °C 1022.9 hPa NE 6.4 km/h 12.2 km/h 84% 0.0 mm
20:16 1.1 °C -1.0 °C 1021.9 hPa NNE 9.0 km/h 12.2 km/h 84% 0.0 mm
20:21 1.1 °C -1.0 °C 1021.9 hPa NNE 9.3 km/h 12.2 km/h 85% 0.0 mm
20:26 1.1 °C -1.0 °C 1021.9 hPa NE 5.5 km/h 12.2 km/h 85% 0.0 mm
20:31 1.0 °C -1.0 °C 1022.9 hPa NE 8.7 km/h 12.6 km/h 85% 0.0 mm
20:36 1.0 °C -1.0 °C 1022.9 hPa NNE 8.7 km/h 14.0 km/h 86% 0.0 mm
20:41 1.0 °C -1.0 °C 1022.9 hPa NNE 6.4 km/h 14.0 km/h 86% 0.0 mm
20:46 0.9 °C -1.0 °C 1021.9 hPa NE 9.3 km/h 11.9 km/h 87% 0.0 mm
20:51 0.9 °C -1.0 °C 1021.9 hPa NE 10.5 km/h 11.9 km/h 87% 0.0 mm
20:56 0.9 °C -1.0 °C 1021.9 hPa NNE 9.0 km/h 11.6 km/h 87% 0.0 mm
21:01 0.8 °C -1.0 °C 1022.9 hPa NE 9.3 km/h 12.2 km/h 87% 0.0 mm
21:06 0.8 °C -1.0 °C 1022.9 hPa NE 9.3 km/h 12.2 km/h 88% 0.0 mm
21:11 0.8 °C -1.0 °C 1022.9 hPa NE 8.7 km/h 11.6 km/h 88% 0.0 mm
21:16 0.9 °C -1.0 °C 1023.9 hPa NE 9.3 km/h 11.6 km/h 88% 0.0 mm
21:21 0.9 °C -1.0 °C 1023.9 hPa NNE 9.3 km/h 12.6 km/h 88% 0.0 mm
21:26 0.8 °C -1.0 °C 1023.9 hPa NNE 10.1 km/h 12.6 km/h 88% 0.0 mm
21:31 0.8 °C -1.0 °C 1022.9 hPa North 6.1 km/h 13.0 km/h 88% 0.0 mm
21:37 0.8 °C -1.0 °C 1022.9 hPa NE 6.4 km/h 13.0 km/h 88% 0.0 mm
21:42 0.7 °C -1.0 °C 1022.9 hPa NNE 8.7 km/h 13.7 km/h 88% 0.0 mm
21:47 0.7 °C -1.0 °C 1022.9 hPa NE 9.3 km/h 13.7 km/h 88% 0.0 mm
21:52 0.7 °C -1.0 °C 1022.9 hPa NNE 7.9 km/h 13.0 km/h 89% 0.0 mm
21:57 0.7 °C -1.0 °C 1022.9 hPa North 9.3 km/h 13.7 km/h 89% 0.0 mm
22:02 0.6 °C -1.0 °C 1021.9 hPa NNE 9.3 km/h 13.7 km/h 89% 0.0 mm
22:07 0.6 °C -1.0 °C 1021.9 hPa NE 7.9 km/h 13.7 km/h 89% 0.0 mm
22:12 0.6 °C -1.0 °C 1021.9 hPa NNE 8.7 km/h 13.7 km/h 90% 0.0 mm
22:17 0.6 °C -1.0 °C 1022.9 hPa North 7.6 km/h 11.6 km/h 90% 0.0 mm
22:22 0.5 °C -1.0 °C 1022.9 hPa NNE 7.2 km/h 11.6 km/h 90% 0.0 mm
22:27 0.4 °C -1.0 °C 1022.9 hPa NNE 12.2 km/h 12.2 km/h 90% 0.0 mm
22:32 0.5 °C -1.0 °C 1021.9 hPa NNE 9.7 km/h 13.0 km/h 90% 0.0 mm
22:38 0.5 °C -1.0 °C 1021.9 hPa NE 9.7 km/h 13.0 km/h 90% 0.0 mm
22:43 0.5 °C -1.0 °C 1021.9 hPa NNE 10.8 km/h 12.6 km/h 90% 0.0 mm
22:48 0.5 °C -1.0 °C 1022.9 hPa NNE 10.1 km/h 12.6 km/h 90% 0.0 mm
22:53 0.5 °C -1.0 °C 1022.9 hPa NE 11.9 km/h 12.2 km/h 90% 0.0 mm
22:58 0.4 °C -1.0 °C 1022.9 hPa NNE 7.9 km/h 12.2 km/h 90% 0.0 mm
23:03 0.4 °C -1.0 °C 1021.9 hPa NNE 9.7 km/h 11.6 km/h 89% 0.0 mm
23:08 0.4 °C -1.0 °C 1021.9 hPa NNE 8.7 km/h 11.9 km/h 90% 0.0 mm
23:13 0.4 °C -1.0 °C 1021.9 hPa NNE 9.0 km/h 13.7 km/h 90% 0.0 mm
23:18 0.3 °C -1.0 °C 1022.9 hPa NNE 9.0 km/h 13.7 km/h 90% 0.0 mm
23:23 0.4 °C -1.0 °C 1022.9 hPa NE 9.0 km/h 13.7 km/h 90% 0.0 mm
23:28 0.4 °C -1.0 °C 1021.9 hPa NE 10.1 km/h 13.7 km/h 90% 0.0 mm
23:34 0.4 °C -1.0 °C 1021.9 hPa NNE 10.5 km/h 14.0 km/h 90% 0.0 mm
23:39 0.4 °C -1.0 °C 1021.9 hPa NE 10.5 km/h 14.0 km/h 90% 0.0 mm
23:44 0.5 °C -1.0 °C 1022.9 hPa NNE 9.3 km/h 14.0 km/h 89% 0.0 mm
23:49 0.5 °C -1.0 °C 1022.9 hPa NNE 8.7 km/h 13.0 km/h 89% 0.0 mm
23:54 0.5 °C -1.0 °C 1022.9 hPa NNE 13.0 km/h 14.0 km/h 89% 0.0 mm
23:59 0.4 °C -1.0 °C 1022.9 hPa ENE 9.3 km/h 14.0 km/h 89% 0.0 mm
Données Historique de Météo Turbie

Mise a jour : 18/06/2018 01:33:12
Généré par Cumulus 1.9.4 (1099)